Orbital Elements at Epoch 2459200.5 (2020-Dec-17.0) TDB
Reference: JPL 21 (heliocentric ecliptic J2000)
Element | Value | Uncertainty (1-sigma) | Units |
e | .08710082208494012 | 3.4056e-08 | |
a | 2.4090481195676 | 1.243e-08 | au |
q | 2.199218047911083 | 8.1488e-08 | au |
i | 4.652261855450473 | 6.0228e-06 | deg |
node | 184.9658919408593 | 4.8419e-05 | deg |
peri | 245.7996855326587 | 6.1307e-05 | deg |
M | 54.53414322152485 | 3.6881e-05 | deg |
tp | 2458993.613271174772 (2020-May-24.11327117) | 0.00014016 | TDB |
period | 1365.735628678307 3.74 | 1.057e-05 2.894e-08 | d yr |
n | .2635942069904045 | 2.0401e-09 | deg/d |
Q | 2.618878191224117 | 1.3513e-08 | au |
|
| | Orbit Determination Parameters
Additional Information
|